Weather History for Blacksburg, VA

Change the Weather History Date:

Wednesday, May 14, 2014

  Actual Average Record
Temperature  
Mean Temperature 71 °F 59 °F  
Max Temperature 83 °F 71 °F 86 °F (1956)
Min Temperature 58 °F 47 °F 31 °F (1974)
Degree Days  
Heating Degree Days 0 7  
Month to date heating degree days 39 117  
Since 1 July heating degree days 5372 5322  
Cooling Degree Days 6 1  
Month to date cooling degree days 24 3  
Year to date cooling degree days 24 6  
Growing Degree Days 20 (Base 50)    
Moisture  
Dew Point 63 °F    
Average Humidity 76    
Maximum Humidity 100    
Minimum Humidity 51    
Precipitation  
Precipitation T in 0.14 in 1.28 in (2012)
Month to date precipitation 0.46 1.76  
Year to date precipitation 12.61 14.77  
Snow  
Snow 0.00 in - - ()
Month to date snowfall 0.0  
Since 1 July snowfall 34.4  
Snow Depth 0.00 in    
Sea Level Pressure  
Sea Level Pressure 30.18 in    
Wind  
Wind Speed 6 mph (SE)    
Max Wind Speed 15 mph    
Max Gust Speed 19 mph    
Visibility 9 miles    
Events Rain , Thunderstorm    
T = Trace of Precipitation, MM = Missing Value Source: NWS Daily Summary

Daily Weather History Graph

Daily Weather History Graph

Search for Another Location

Airport:

Trip Planner

Search our weather history database for the weather conditions in past years. The results will help you decide how hot, cold, wet, or windy it might be!

Date:

Astronomy

May. 14, 2014 Rise Set
Actual Time 6:13 AM EDT 8:22 PM EDT
Civil Twilight 5:44 AM EDT 8:51 PM EDT
Nautical Twilight 5:09 AM EDT 9:27 PM EDT
Astronomical Twilight 4:31 AM EDT 10:05 PM EDT
Moon 8:26 PM EDT (5/14) 6:10 AM EDT (5/14)
Length of Visible Light 15h 06m
Length of Day
14h 08m
Full, 100% of the Moon is Illuminated
May 14
Full
May 14
Full
May 21
Last Quarter
May 28
New
Jun 5
First Quarter

Hourly Weather History & Observations

Time (EDT) Temp. Heat Index Dew Point Humidity Pressure Visibility Wind Dir Wind Speed Gust Speed Precip Events Conditions
12:15 AM 66.2 °F - 62.6 °F 88% 30.23 in 10.0 mi Calm Calm - N/A   Scattered Clouds
12:35 AM 64.4 °F - 62.6 °F 94% 30.22 in 10.0 mi Calm Calm - N/A   Scattered Clouds
12:55 AM 66.2 °F - 62.6 °F 88% 30.22 in 10.0 mi Calm Calm - N/A   Mostly Cloudy
1:15 AM 66.2 °F - 62.6 °F 88% 30.23 in 10.0 mi Calm Calm - N/A   Overcast
1:35 AM 66.2 °F - 62.6 °F 88% 30.22 in 10.0 mi Calm Calm - N/A   Scattered Clouds
2:15 AM 64.4 °F - 62.6 °F 94% 30.21 in 10.0 mi Calm Calm - N/A   Clear
2:35 AM 64.4 °F - 62.6 °F 94% 30.20 in 10.0 mi Calm Calm - N/A   Clear
2:55 AM 62.6 °F - 62.6 °F 100% 30.20 in 10.0 mi Calm Calm - N/A   Clear
3:15 AM 62.6 °F - 62.6 °F 100% 30.19 in 10.0 mi Calm Calm - N/A   Clear
3:35 AM 60.8 °F - 60.8 °F 100% 30.20 in 7.0 mi Calm Calm - N/A   Clear
3:55 AM 60.8 °F - 60.8 °F 100% 30.20 in 7.0 mi Calm Calm - N/A   Clear
4:15 AM 60.8 °F - 60.8 °F 100% 30.20 in 7.0 mi Calm Calm - N/A   Clear
4:35 AM 60.8 °F - 60.8 °F 100% 30.20 in 4.0 mi Calm Calm - N/A   Clear
4:55 AM 59.0 °F - 59.0 °F 100% 30.20 in 5.0 mi Calm Calm - N/A   Clear
5:15 AM 59.0 °F - 59.0 °F 100% 30.20 in 5.0 mi Calm Calm - N/A   Clear
5:35 AM 60.8 °F - 60.8 °F 100% 30.20 in 7.0 mi Calm Calm - N/A   Scattered Clouds
5:55 AM 60.8 °F - 60.8 °F 100% 30.21 in 7.0 mi Calm Calm - N/A   Scattered Clouds
6:15 AM 60.8 °F - 60.8 °F 100% 30.21 in 5.0 mi Calm Calm - N/A   Scattered Clouds
6:35 AM 60.8 °F - 60.8 °F 100% 30.21 in 4.0 mi Calm Calm - N/A   Overcast
7:15 AM 62.6 °F - 62.6 °F 100% 30.22 in 7.0 mi Calm Calm - N/A   Scattered Clouds
7:35 AM - - - N/A% 30.21 in - ESE 4.6 mph - N/A   Unknown
7:55 AM 66.2 °F - 66.2 °F 100% 30.22 in 10.0 mi ESE 3.5 mph - N/A   Clear
8:15 AM 69.8 °F - 66.2 °F 88% 30.22 in 10.0 mi Calm Calm - N/A   Clear
8:35 AM 71.6 °F - 66.2 °F 83% 30.22 in 10.0 mi ESE 4.6 mph - N/A   Clear
8:55 AM 69.8 °F - 66.2 °F 88% 30.22 in 10.0 mi SE 4.6 mph - N/A   Clear
9:15 AM 71.6 °F - 66.2 °F 83% 30.22 in 10.0 mi Calm Calm - N/A   Clear
9:35 AM 73.4 °F - 66.2 °F 78% 30.22 in 10.0 mi SE 3.5 mph - N/A   Clear
9:55 AM 73.4 °F - 68.0 °F 83% 30.22 in 10.0 mi East 3.5 mph - N/A   Clear
10:15 AM 73.4 °F - 66.2 °F 78% 30.22 in 10.0 mi East 4.6 mph - N/A   Clear
10:35 AM 75.2 °F - 68.0 °F 78% 30.22 in 10.0 mi East 4.6 mph - N/A   Scattered Clouds
10:55 AM 73.4 °F - 66.2 °F 78% 30.22 in 10.0 mi East 6.9 mph - N/A   Scattered Clouds
11:35 AM 77.0 °F - 68.0 °F 74% 30.21 in 10.0 mi ESE 8.1 mph - N/A   Clear
11:55 AM 75.2 °F - 68.0 °F 78% 30.21 in 10.0 mi East 5.8 mph - N/A   Scattered Clouds
12:15 PM 77.0 °F - 68.0 °F 74% 30.20 in 10.0 mi ESE 10.4 mph - N/A   Mostly Cloudy
12:55 PM 78.8 °F - 64.4 °F 61% 30.20 in 10.0 mi South 10.4 mph - N/A   Unknown
1:15 PM 78.8 °F - 66.2 °F 65% 30.19 in 10.0 mi SSE 10.4 mph - N/A Rain Light Rain
1:35 PM 80.6 °F 82.7 °F 66.2 °F 61% 30.18 in 10.0 mi SSE 12.7 mph 17.3 mph N/A   Unknown
1:55 PM 80.6 °F 82.3 °F 64.4 °F 58% 30.17 in 10.0 mi SSE 10.4 mph 17.3 mph N/A   Scattered Clouds
2:15 PM 80.6 °F 81.8 °F 62.6 °F 54% 30.17 in 10.0 mi SSE 12.7 mph 19.6 mph N/A Thunderstorm Scattered Clouds
2:35 PM 80.6 °F 81.5 °F 60.8 °F 51% 30.17 in 10.0 mi SSE 9.2 mph - N/A   Scattered Clouds
2:55 PM 82.4 °F 83.9 °F 64.4 °F 54% 30.16 in 10.0 mi SE 12.7 mph 18.4 mph N/A   Scattered Clouds
3:15 PM 80.6 °F 81.8 °F 62.6 °F 54% 30.15 in 10.0 mi SSE 12.7 mph 18.4 mph N/A   Scattered Clouds
3:35 PM 82.4 °F 82.9 °F 60.8 °F 48% 30.14 in 10.0 mi South 6.9 mph - N/A   Scattered Clouds
4:15 PM 80.6 °F 81.5 °F 60.8 °F 51% 30.13 in 10.0 mi SSE 12.7 mph 20.7 mph N/A   Scattered Clouds
4:35 PM 82.4 °F 83.4 °F 62.6 °F 51% 30.12 in 10.0 mi SSE 13.8 mph 21.9 mph N/A   Clear
4:55 PM 80.6 °F 81.5 °F 60.8 °F 51% 30.12 in 10.0 mi SE 15.0 mph - N/A   Scattered Clouds
5:15 PM 80.6 °F 81.5 °F 60.8 °F 51% 30.12 in 10.0 mi SSE 11.5 mph - N/A   Scattered Clouds
5:55 PM 80.6 °F 81.5 °F 60.8 °F 51% 30.11 in 10.0 mi SE 10.4 mph 18.4 mph N/A   Scattered Clouds
6:15 PM 80.6 °F 81.5 °F 60.8 °F 51% 30.12 in 10.0 mi SE 10.4 mph - N/A   Scattered Clouds
6:35 PM 78.8 °F - 60.8 °F 54% 30.12 in 10.0 mi SSE 12.7 mph 24.2 mph N/A   Scattered Clouds
6:55 PM 77.0 °F - 60.8 °F 57% 30.12 in 10.0 mi SSE 13.8 mph 18.4 mph N/A   Scattered Clouds
7:15 PM 77.0 °F - 59.0 °F 54% 30.12 in 10.0 mi SSE 15.0 mph - N/A   Scattered Clouds
7:35 PM 75.2 °F - 60.8 °F 61% 30.12 in 10.0 mi SSE 9.2 mph 17.3 mph N/A   Scattered Clouds
7:55 PM 75.2 °F - 60.8 °F 61% 30.12 in 10.0 mi SSE 5.8 mph - N/A   Clear
8:15 PM 73.4 °F - 60.8 °F 65% 30.12 in 10.0 mi SE 6.9 mph - N/A   Clear
8:35 PM 73.4 °F - 59.0 °F 61% 30.13 in 10.0 mi SSE 5.8 mph - N/A   Clear
8:55 PM 73.4 °F - 59.0 °F 61% 30.14 in 10.0 mi SSE 4.6 mph - N/A   Clear
9:15 PM 71.6 °F - 60.8 °F 69% 30.14 in 10.0 mi SSE 4.6 mph - N/A   Scattered Clouds
9:35 PM 71.6 °F - 60.8 °F 69% 30.15 in 10.0 mi ESE 4.6 mph - N/A   Scattered Clouds
9:55 PM 71.6 °F - 60.8 °F 69% 30.15 in 10.0 mi SE 5.8 mph - N/A   Mostly Cloudy
10:15 PM 69.8 °F - 60.8 °F 73% 30.15 in 10.0 mi ESE 4.6 mph - N/A   Mostly Cloudy
10:35 PM 69.8 °F - 64.4 °F 83% 30.16 in 10.0 mi ESE 4.6 mph - N/A   Scattered Clouds
10:55 PM 68.0 °F - 64.4 °F 88% 30.15 in 10.0 mi East 5.8 mph - N/A   Clear
11:15 PM 68.0 °F - 64.4 °F 88% 30.14 in 10.0 mi ESE 4.6 mph - N/A   Clear
11:35 PM 68.0 °F - 62.6 °F 83% 30.14 in 10.0 mi ESE 4.6 mph - N/A   Clear